Time,TemperatureF,DewpointF,PressureIn,WindDirection,WindDirectionDegrees,WindSpeedMPH,WindSpeedGustMPH,Humidity,HourlyPrecipIn,Conditions,Clouds,dailyrainin,SolarRadiationWatts/m^2,SoftwareType,DateUTC
2013-12-07 00:00:00,67.5,63.2,30.01,SSW,209,6.0,0.0,86,0.00,,CLR,0.00,0.00,VWS V15.00,2013-12-07 05:00:00,
2013-12-07 00:01:00,68.4,63.4,30.02,SW,225,9.0,0.0,84,0.00,,CLR,0.00,0.00,VWS V14.01,2013-12-07 05:01:00,
2013-12-07 00:02:00,68.4,63.4,30.02,SW,225,9.0,0.0,84,0.00,,CLR,0.00,0.00,VWS V14.01,2013-12-07 05:02:00,
2013-12-07 00:05:00,67.5,63.2,30.01,SW,215,4.0,0.0,86,0.00,,CLR,0.00,0.00,VWS V15.00,2013-12-07 05:05:00,
2013-12-07 00:07:00,68.3,63.3,30.02,SSW,209,4.0,0.0,84,0.00,,CLR,0.00,0.00,VWS V14.01,2013-12-07 05:07:00,
2013-12-07 00:10:00,67.4,63.1,30.01,SSW,198,5.0,0.0,86,0.00,,CLR,0.00,0.00,VWS V15.00,2013-12-07 05:10:00,
2013-12-07 00:12:00,68.2,63.2,30.01,South,177,5.0,0.0,84,0.00,,CLR,0.00,0.00,VWS V14.01,2013-12-07 05:12:00,
2013-12-07 00:15:00,67.4,63.4,30.02,SSW,209,7.0,0.0,87,0.00,,CLR,0.00,0.00,VWS V15.00,2013-12-07 05:15:00,
2013-12-07 00:17:00,68.1,63.1,30.01,SSW,195,5.0,0.0,84,0.00,,CLR,0.00,0.00,VWS V14.01,2013-12-07 05:17:00,
2013-12-07 00:20:00,67.6,63.3,30.01,SW,219,7.0,0.0,86,0.00,,CLR,0.00,0.00,VWS V15.00,2013-12-07 05:20:00,
2013-12-07 00:22:00,67.9,63.2,30.01,SSW,203,6.0,0.0,85,0.00,,CLR,0.00,0.00,VWS V14.01,2013-12-07 05:22:00,
2013-12-07 00:25:00,67.6,63.3,30.01,SSW,208,7.0,0.0,86,0.00,,CLR,0.00,0.00,VWS V15.00,2013-12-07 05:25:00,
2013-12-07 00:27:00,67.8,63.1,30.01,SSE,153,5.0,0.0,85,0.00,,CLR,0.00,0.00,VWS V14.01,2013-12-07 05:27:00,
2013-12-07 00:30:00,67.6,63.3,30.01,SSW,209,5.0,0.0,86,0.00,,CLR,0.00,0.00,VWS V15.00,2013-12-07 05:30:00,
2013-12-07 00:32:00,67.7,63.4,30.01,SSW,199,9.0,0.0,86,0.00,,CLR,0.00,0.00,VWS V14.01,2013-12-07 05:32:00,
2013-12-07 00:35:00,67.6,63.3,30.01,SSW,213,8.0,0.0,86,0.00,,CLR,0.00,0.00,VWS V15.00,2013-12-07 05:35:00,
2013-12-07 00:37:00,67.5,63.2,30.01,SSW,213,6.0,0.0,86,0.00,,FEW033,0.00,0.00,VWS V14.01,2013-12-07 05:37:00,
2013-12-07 00:40:00,67.5,63.2,30.01,South,179,3.0,0.0,86,0.00,,CLR,0.00,0.00,VWS V15.00,2013-12-07 05:40:00,
2013-12-07 00:42:00,67.4,63.1,30.02,WSW,241,9.0,0.0,86,0.00,,FEW033,0.00,0.00,VWS V14.01,2013-12-07 05:42:00,
2013-12-07 00:45:00,67.6,63.3,30.01,South,186,7.0,0.0,86,0.00,,CLR,0.00,0.00,VWS V15.00,2013-12-07 05:45:00,
2013-12-07 00:47:00,67.5,63.2,30.01,SSW,196,5.0,0.0,86,0.00,,FEW033,0.00,0.00,VWS V14.01,2013-12-07 05:47:00,
2013-12-07 00:50:00,67.6,63.3,30.02,SSW,206,6.0,0.0,86,0.00,,CLR,0.00,0.00,VWS V15.00,2013-12-07 05:50:00,
2013-12-07 00:52:00,67.4,63.1,30.01,SSW,199,8.0,0.0,86,0.00,,FEW033,0.00,0.00,VWS V14.01,2013-12-07 05:52:00,
2013-12-07 00:55:00,67.6,63.3,30.02,SW,218,9.0,0.0,86,0.00,,CLR,0.00,0.00,VWS V15.00,2013-12-07 05:55:00,
2013-12-07 00:57:00,67.5,63.2,30.01,SSW,209,8.0,0.0,86,0.00,,FEW033,0.00,0.00,VWS V14.01,2013-12-07 05:57:00,
2013-12-07 01:00:00,67.6,63.3,30.01,SW,215,8.0,0.0,86,0.00,,CLR,0.00,0.00,VWS V15.00,2013-12-07 06:00:00,
2013-12-07 01:02:00,67.5,63.2,30.01,SSW,207,8.0,0.0,86,0.00,,FEW033,0.00,0.00,VWS V14.01,2013-12-07 06:02:00,
2013-12-07 01:05:00,67.7,63.4,30.02,SW,215,5.0,0.0,86,0.00,,CLR,0.00,0.00,VWS V15.00,2013-12-07 06:05:00,
2013-12-07 01:07:00,67.4,63.1,30.01,SSW,199,7.0,0.0,86,0.00,,FEW033,0.00,0.00,VWS V14.01,2013-12-07 06:07:00,
2013-12-07 01:10:00,67.8,63.5,30.02,SW,223,8.0,0.0,86,0.00,,CLR,0.00,0.00,VWS V15.00,2013-12-07 06:10:00,
2013-12-07 01:12:00,67.4,63.1,30.02,SSW,211,6.0,0.0,86,0.00,,FEW033,0.00,0.00,VWS V14.01,2013-12-07 06:12:00,
2013-12-07 01:15:00,67.8,63.5,30.02,SW,225,7.0,0.0,86,0.00,,CLR,0.00,0.00,VWS V15.00,2013-12-07 06:15:00,
2013-12-07 01:17:00,67.5,63.2,30.01,SSW,203,6.0,0.0,86,0.00,,FEW033,0.00,0.00,VWS V14.01,2013-12-07 06:17:00,
2013-12-07 01:20:00,67.9,63.6,30.02,SSW,210,10.0,0.0,86,0.00,,CLR,0.00,0.00,VWS V15.00,2013-12-07 06:20:00,
2013-12-07 01:22:00,67.5,63.2,30.01,SSW,193,7.0,0.0,86,0.00,,FEW033,0.00,0.00,VWS V14.01,2013-12-07 06:22:00,
2013-12-07 01:25:00,67.9,63.6,30.02,SW,227,10.0,0.0,86,0.00,,CLR,0.00,0.00,VWS V15.00,2013-12-07 06:25:00,
2013-12-07 01:27:00,67.6,63.3,30.01,SW,219,7.0,0.0,86,0.00,,FEW033,0.00,0.00,VWS V14.01,2013-12-07 06:27:00,
2013-12-07 01:30:00,67.9,63.6,30.02,SW,217,5.0,0.0,86,0.00,,CLR,0.00,0.00,VWS V15.00,2013-12-07 06:30:00,
2013-12-07 01:33:00,67.6,63.3,30.01,SSW,205,6.0,0.0,86,0.00,,FEW033,0.00,0.00,VWS V14.01,2013-12-07 06:33:00,
2013-12-07 01:35:00,67.9,63.6,30.02,WSW,237,3.0,0.0,86,0.00,,CLR,0.00,0.00,VWS V15.00,2013-12-07 06:35:00,
2013-12-07 01:38:00,67.6,63.3,30.01,SW,218,9.0,0.0,86,0.00,,BKN100,0.00,0.00,VWS V14.01,2013-12-07 06:38:00,
2013-12-07 01:40:00,67.8,63.5,30.02,SW,222,7.0,0.0,86,0.00,,CLR,0.00,0.00,VWS V15.00,2013-12-07 06:40:00,
2013-12-07 01:43:00,67.6,63.3,30.01,SSW,205,8.0,0.0,86,0.00,,BKN100,0.00,0.00,VWS V14.01,2013-12-07 06:43:00,
2013-12-07 01:45:00,67.8,63.8,30.02,SW,232,7.0,0.0,87,0.00,,CLR,0.00,0.00,VWS V15.00,2013-12-07 06:45:00,
2013-12-07 01:48:00,67.6,63.3,30.01,SW,229,5.0,0.0,86,0.00,,BKN100,0.00,0.00,VWS V14.01,2013-12-07 06:48:00,
2013-12-07 01:50:00,67.7,63.4,30.03,WSW,249,8.0,0.0,86,0.00,,CLR,0.00,0.00,VWS V15.00,2013-12-07 06:50:00,
2013-12-07 01:53:00,67.6,63.3,30.01,WSW,241,6.0,0.0,86,0.00,,BKN100,0.00,0.00,VWS V14.01,2013-12-07 06:53:00,
2013-12-07 01:55:00,67.7,63.7,30.02,SW,223,8.0,0.0,87,0.00,,CLR,0.00,0.00,VWS V15.00,2013-12-07 06:55:00,
2013-12-07 01:58:00,67.6,63.3,30.02,SW,221,7.0,0.0,86,0.00,,BKN100,0.00,0.00,VWS V14.01,2013-12-07 06:58:00,
2013-12-07 02:00:00,67.6,63.6,30.02,WSW,252,4.0,0.0,87,0.00,,CLR,0.00,0.00,VWS V15.00,2013-12-07 07:00:00,
2013-12-07 02:03:00,67.7,63.4,30.02,SW,214,5.0,0.0,86,0.00,,BKN100,0.00,0.00,VWS V14.01,2013-12-07 07:03:00,
2013-12-07 02:05:00,67.6,63.6,30.02,SW,221,4.0,0.0,87,0.00,,CLR,0.00,0.00,VWS V15.00,2013-12-07 07:05:00,
2013-12-07 02:08:00,67.7,63.4,30.02,SW,228,5.0,0.0,86,0.00,,BKN100,0.00,0.00,VWS V14.01,2013-12-07 07:08:00,
2013-12-07 02:10:00,67.6,63.6,30.02,SSW,206,6.0,0.0,87,0.00,,CLR,0.00,0.00,VWS V15.00,2013-12-07 07:10:00,
2013-12-07 02:13:00,67.8,63.5,30.02,WSW,243,6.0,0.0,86,0.00,,BKN100,0.00,0.00,VWS V14.01,2013-12-07 07:13:00,
2013-12-07 02:15:00,67.6,63.6,30.02,SSW,202,4.0,0.0,87,0.00,,CLR,0.00,0.00,VWS V15.00,2013-12-07 07:15:00,
2013-12-07 02:18:00,67.9,63.6,30.02,WSW,241,5.0,0.0,86,0.00,,BKN100,0.00,0.00,VWS V14.01,2013-12-07 07:18:00,
2013-12-07 02:20:00,67.6,63.6,30.02,SSW,205,4.0,0.0,87,0.00,,CLR,0.00,0.00,VWS V15.00,2013-12-07 07:20:00,
2013-12-07 02:23:00,67.9,63.6,30.02,WSW,250,7.0,0.0,86,0.00,,BKN100,0.00,0.00,VWS V14.01,2013-12-07 07:23:00,
2013-12-07 02:25:00,67.6,63.6,30.02,SSW,213,5.0,0.0,87,0.00,,CLR,0.00,0.00,VWS V15.00,2013-12-07 07:25:00,
2013-12-07 02:28:00,67.9,63.6,30.02,SW,236,7.0,0.0,86,0.00,,BKN100,0.00,0.00,VWS V14.01,2013-12-07 07:28:00,
2013-12-07 02:30:00,67.7,63.7,30.02,SW,214,4.0,0.0,87,0.00,,CLR,0.00,0.00,VWS V15.00,2013-12-07 07:30:00,
2013-12-07 02:33:00,67.9,63.6,30.03,SW,225,6.0,0.0,86,0.00,,BKN100,0.00,0.00,VWS V14.01,2013-12-07 07:33:00,
2013-12-07 02:35:00,67.6,63.6,30.02,SSW,211,9.0,0.0,87,0.00,,CLR,0.00,0.00,VWS V15.00,2013-12-07 07:35:00,
2013-12-07 02:38:00,67.8,63.5,30.03,SW,220,4.0,0.0,86,0.00,,-RA,0.00,0.00,VWS V14.01,2013-12-07 07:38:00,
2013-12-07 02:40:00,67.6,63.6,30.02,SW,215,6.0,0.0,87,0.00,,CLR,0.00,0.00,VWS V15.00,2013-12-07 07:40:00,
2013-12-07 02:44:00,67.8,63.5,30.02,SW,235,5.0,0.0,86,0.00,,-RA,0.00,0.00,VWS V14.01,2013-12-07 07:44:00,
2013-12-07 02:45:00,67.6,63.6,30.02,SSW,202,7.0,0.0,87,0.00,,CLR,0.00,0.00,VWS V15.00,2013-12-07 07:45:00,
2013-12-07 02:49:00,67.7,63.4,30.03,SW,219,4.0,0.0,86,0.00,,-RA,0.00,0.00,VWS V14.01,2013-12-07 07:49:00,
2013-12-07 02:50:00,67.6,63.9,30.02,South,190,9.0,0.0,88,0.00,,CLR,0.00,0.00,VWS V15.00,2013-12-07 07:50:00,
2013-12-07 02:54:00,67.7,63.7,30.02,SW,230,9.0,0.0,87,0.00,,-RA,0.00,0.00,VWS V14.01,2013-12-07 07:54:00,
2013-12-07 02:55:00,67.6,63.9,30.02,SW,235,7.0,0.0,88,0.00,,CLR,0.00,0.00,VWS V15.00,2013-12-07 07:55:00,
2013-12-07 02:59:00,67.6,63.6,30.02,SSW,207,2.0,0.0,87,0.00,,-RA,0.00,0.00,VWS V14.01,2013-12-07 07:59:00,
2013-12-07 03:00:00,67.7,63.7,30.02,SW,214,5.0,0.0,87,0.00,,CLR,0.00,0.00,VWS V15.00,2013-12-07 08:00:00,
2013-12-07 03:04:00,67.6,63.6,30.02,South,182,3.0,0.0,87,0.00,,-RA,0.00,0.00,VWS V14.01,2013-12-07 08:04:00,
2013-12-07 03:05:00,67.7,63.7,30.02,WSW,240,4.0,0.0,87,0.00,,CLR,0.00,0.00,VWS V15.00,2013-12-07 08:05:00,
2013-12-07 03:09:00,67.6,63.6,30.02,SW,214,6.0,0.0,87,0.00,,-RA,0.00,0.00,VWS V14.01,2013-12-07 08:09:00,
2013-12-07 03:10:00,67.7,63.7,30.02,SW,225,4.0,0.0,87,0.00,,CLR,0.00,0.00,VWS V15.00,2013-12-07 08:10:00,
2013-12-07 03:14:00,67.6,63.6,30.02,South,186,4.0,0.0,87,0.00,,-RA,0.00,0.00,VWS V14.01,2013-12-07 08:14:00,
2013-12-07 03:15:00,67.6,63.9,30.01,South,190,7.0,0.0,88,0.00,,CLR,0.00,0.00,VWS V15.00,2013-12-07 08:15:00,
2013-12-07 03:19:00,67.6,63.6,30.02,SW,219,4.0,0.0,87,0.00,,-RA,0.00,0.00,VWS V14.01,2013-12-07 08:19:00,
2013-12-07 03:20:00,67.7,64.0,30.01,SSW,212,10.0,0.0,88,0.00,,CLR,0.00,0.00,VWS V15.00,2013-12-07 08:20:00,
2013-12-07 03:24:00,67.6,63.6,30.02,SW,217,8.0,0.0,87,0.00,,-RA,0.00,0.00,VWS V14.01,2013-12-07 08:24:00,
2013-12-07 03:25:00,67.7,64.0,30.02,SW,217,5.0,0.0,88,0.00,,CLR,0.00,0.00,VWS V15.00,2013-12-07 08:25:00,
2013-12-07 03:29:00,67.6,63.6,30.02,WSW,243,5.0,0.0,87,0.00,,-RA,0.00,0.00,VWS V14.01,2013-12-07 08:29:00,
2013-12-07 03:30:00,67.6,63.9,30.02,WSW,238,5.0,0.0,88,0.00,,CLR,0.00,0.00,VWS V15.00,2013-12-07 08:30:00,
2013-12-07 03:34:00,67.6,63.6,30.02,SW,236,5.0,0.0,87,0.00,,-RA,0.00,0.00,VWS V14.01,2013-12-07 08:34:00,
2013-12-07 03:35:00,67.6,63.9,30.02,West,265,6.0,0.0,88,0.00,,CLR,0.00,0.00,VWS V15.00,2013-12-07 08:35:00,
2013-12-07 03:39:00,67.6,63.6,30.02,SSW,195,8.0,0.0,87,0.00,,OVC055,0.00,0.00,VWS V14.01,2013-12-07 08:39:00,
2013-12-07 03:40:00,67.5,63.8,30.01,SSW,206,9.0,0.0,88,0.00,,CLR,0.00,0.00,VWS V15.00,2013-12-07 08:40:00,
2013-12-07 03:44:00,67.6,63.6,30.02,SSW,202,7.0,0.0,87,0.00,,OVC055,0.00,0.00,VWS V14.01,2013-12-07 08:44:00,
2013-12-07 03:45:00,67.6,63.9,30.01,SW,236,7.0,0.0,88,0.00,,CLR,0.00,0.00,VWS V15.00,2013-12-07 08:45:00,
2013-12-07 03:49:00,67.6,63.9,30.02,South,190,9.0,0.0,88,0.00,,OVC055,0.00,0.00,VWS V14.01,2013-12-07 08:49:00,
2013-12-07 03:50:00,67.5,63.8,30.02,SSW,210,5.0,0.0,88,0.00,,CLR,0.00,0.00,VWS V15.00,2013-12-07 08:50:00,
2013-12-07 03:54:00,67.6,63.9,30.02,SW,235,7.0,0.0,88,0.00,,OVC055,0.00,0.00,VWS V14.01,2013-12-07 08:54:00,
2013-12-07 03:55:00,67.5,64.2,30.02,WSW,247,4.0,0.0,89,0.00,,CLR,0.00,0.00,VWS V15.00,2013-12-07 08:55:00,
2013-12-07 03:59:00,67.7,63.7,30.02,SW,214,5.0,0.0,87,0.00,,OVC055,0.00,0.00,VWS V14.01,2013-12-07 08:59:00,
2013-12-07 04:00:00,67.4,64.1,30.03,SW,223,5.0,0.0,89,0.00,,CLR,0.00,0.00,VWS V15.00,2013-12-07 09:00:00,
2013-12-07 04:04:00,67.7,63.7,30.02,SW,234,4.0,0.0,87,0.00,,OVC055,0.00,0.00,VWS V14.01,2013-12-07 09:04:00,
2013-12-07 04:05:00,67.5,64.2,30.03,WSW,250,7.0,0.0,89,0.00,,CLR,0.00,0.00,VWS V15.00,2013-12-07 09:05:00,
2013-12-07 04:09:00,67.7,63.7,30.02,SW,225,4.0,0.0,87,0.00,,OVC055,0.00,0.00,VWS V14.01,2013-12-07 09:09:00,
2013-12-07 04:10:00,67.5,64.2,30.03,SW,221,6.0,0.0,89,0.00,,CLR,0.00,0.00,VWS V15.00,2013-12-07 09:10:00,
2013-12-07 04:14:00,67.6,63.9,30.01,South,190,7.0,0.0,88,0.00,,OVC055,0.00,0.00,VWS V14.01,2013-12-07 09:14:00,
2013-12-07 04:15:00,67.5,64.2,30.03,WSW,248,3.0,0.0,89,0.00,,CLR,0.00,0.00,VWS V15.00,2013-12-07 09:15:00,
2013-12-07 04:19:00,67.7,64.0,30.01,SSW,212,10.0,0.0,88,0.00,,OVC055,0.00,0.00,VWS V14.01,2013-12-07 09:19:00,
2013-12-07 04:20:00,67.4,64.1,30.03,SW,227,3.0,0.0,89,0.00,,CLR,0.00,0.00,VWS V15.00,2013-12-07 09:20:00,
2013-12-07 04:25:00,67.7,64.0,30.02,SW,217,5.0,0.0,88,0.00,,OVC055,0.00,0.00,VWS V14.01,2013-12-07 09:25:00,
2013-12-07 04:29:00,67.6,63.9,30.02,SW,220,5.0,0.0,88,0.00,,OVC055,0.00,0.00,VWS V14.01,2013-12-07 09:29:00,
2013-12-07 04:30:00,67.2,63.8,30.03,SW,230,5.0,0.0,89,0.00,,CLR,0.00,0.00,VWS V15.00,2013-12-07 09:30:00,
2013-12-07 04:35:00,67.6,63.9,30.02,West,265,6.0,0.0,88,0.00,,OVC055,0.00,0.00,VWS V14.01,2013-12-07 09:35:00,
2013-12-07 04:40:00,67.6,63.9,30.01,SSW,212,10.0,0.0,88,0.00,,BKN100,0.00,0.00,VWS V14.01,2013-12-07 09:40:00,
2013-12-07 04:45:00,67.6,63.9,30.02,SSW,207,6.0,0.0,88,0.00,,BKN100,0.00,0.00,VWS V14.01,2013-12-07 09:45:00,
2013-12-07 04:50:00,67.5,63.8,30.02,SSW,211,10.0,0.0,88,0.00,,BKN100,0.00,0.00,VWS V14.01,2013-12-07 09:50:00,
2013-12-07 04:55:00,67.5,64.2,30.03,SW,218,6.0,0.0,89,0.00,,BKN100,0.00,0.00,VWS V14.01,2013-12-07 09:55:00,
2013-12-07 05:00:00,67.4,64.1,30.03,South,188,6.0,0.0,89,0.00,,BKN100,0.00,0.00,VWS V14.01,2013-12-07 10:00:00,
2013-12-07 05:05:00,67.5,64.2,30.03,WSW,247,4.0,0.0,89,0.00,,BKN100,0.00,0.00,VWS V14.01,2013-12-07 10:05:00,
2013-12-07 05:10:00,67.5,64.2,30.03,SW,236,6.0,0.0,89,0.00,,BKN100,0.00,0.00,VWS V14.01,2013-12-07 10:10:00,
2013-12-07 05:15:00,67.4,64.1,30.03,SW,236,4.0,0.0,89,0.00,,BKN100,0.00,0.00,VWS V14.01,2013-12-07 10:15:00,
2013-12-07 05:20:00,67.4,64.1,30.03,West,262,8.0,0.0,89,0.00,,BKN100,0.00,0.00,VWS V14.01,2013-12-07 10:20:00,
2013-12-07 05:25:00,66.1,64.0,30.08,West,259,3.0,0.0,93,0.02,,CLR,0.02,0.00,VWS V15.00,2013-12-07 10:25:00,
2013-12-07 05:26:00,67.3,64.0,30.03,SSW,213,6.0,0.0,89,0.00,,BKN100,0.00,0.00,VWS V14.01,2013-12-07 10:26:00,
2013-12-07 05:30:00,66.0,63.9,30.08,West,273,3.0,0.0,93,0.02,,CLR,0.02,0.00,VWS V15.00,2013-12-07 10:30:00,
2013-12-07 05:31:00,67.2,63.8,30.04,SW,229,4.0,0.0,89,0.00,,BKN100,0.00,0.00,VWS V14.01,2013-12-07 10:31:00,
2013-12-07 05:35:00,66.0,64.2,30.08,West,281,0.0,0.0,94,0.02,,CLR,0.02,0.00,VWS V15.00,2013-12-07 10:35:00,
2013-12-07 05:36:00,67.0,64.0,30.04,SW,223,8.0,0.0,90,0.01,,SCT100,0.01,0.00,VWS V14.01,2013-12-07 10:36:00,
2013-12-07 05:40:00,65.9,64.1,30.08,WSW,255,3.0,0.0,94,0.01,,CLR,0.02,0.00,VWS V15.00,2013-12-07 10:40:00,
2013-12-07 05:41:00,66.8,64.1,30.05,SW,227,4.0,0.0,91,0.01,,SCT100,0.01,0.00,VWS V14.01,2013-12-07 10:41:00,
2013-12-07 05:45:00,65.9,64.1,30.08,West,259,2.0,0.0,94,0.01,,CLR,0.02,0.00,VWS V15.00,2013-12-07 10:45:00,
2013-12-07 05:46:00,66.6,64.2,30.05,SW,228,4.0,0.0,92,0.01,,SCT100,0.01,0.00,VWS V14.01,2013-12-07 10:46:00,
2013-12-07 05:50:00,65.8,64.0,30.08,WSW,255,2.0,0.0,94,0.01,,CLR,0.02,0.00,VWS V15.00,2013-12-07 10:50:00,
2013-12-07 05:51:00,66.5,64.1,30.05,WSW,239,5.0,0.0,92,0.01,,SCT100,0.01,0.00,VWS V14.01,2013-12-07 10:51:00,
2013-12-07 05:55:00,65.8,64.0,30.09,West,281,0.0,0.0,94,0.01,,CLR,0.02,0.00,VWS V15.00,2013-12-07 10:55:00,
2013-12-07 05:56:00,66.3,63.9,30.06,SW,223,2.0,0.0,92,0.01,,SCT100,0.01,0.00,VWS V14.01,2013-12-07 10:56:00,
2013-12-07 06:00:00,65.8,64.0,30.09,West,269,1.0,0.0,94,0.01,,CLR,0.02,0.00,VWS V15.00,2013-12-07 11:00:00,
2013-12-07 06:01:00,66.3,64.2,30.06,SSW,213,4.0,0.0,93,0.02,,SCT100,0.02,0.00,VWS V14.01,2013-12-07 11:01:00,
2013-12-07 06:05:00,65.7,63.9,30.09,West,281,0.0,0.0,94,0.01,,CLR,0.02,0.00,VWS V15.00,2013-12-07 11:05:00,
2013-12-07 06:06:00,66.2,64.1,30.06,SW,234,2.0,0.0,93,0.02,,SCT100,0.02,0.00,VWS V14.01,2013-12-07 11:06:00,
2013-12-07 06:10:00,65.6,63.8,30.10,West,281,0.0,0.0,94,0.00,,CLR,0.02,0.00,VWS V15.00,2013-12-07 11:10:00,
2013-12-07 06:12:00,66.2,64.1,30.07,WSW,238,2.0,0.0,93,0.02,,SCT100,0.02,0.00,VWS V14.01,2013-12-07 11:12:00,
2013-12-07 06:15:00,65.6,64.1,30.10,West,281,1.0,0.0,95,0.00,,CLR,0.02,0.00,VWS V15.00,2013-12-07 11:15:00,
2013-12-07 06:17:00,66.1,64.0,30.07,SW,221,4.0,0.0,93,0.02,,SCT100,0.02,0.00,VWS V14.01,2013-12-07 11:17:00,
2013-12-07 06:20:00,65.6,64.1,30.10,West,281,2.0,0.0,95,0.00,,CLR,0.02,0.00,VWS V15.00,2013-12-07 11:20:00,
2013-12-07 06:22:00,66.1,64.0,30.07,WSW,240,4.0,0.0,93,0.02,,SCT100,0.02,0.00,VWS V14.01,2013-12-07 11:22:00,
2013-12-07 06:25:00,65.5,64.0,30.11,West,281,1.0,0.0,95,0.00,,CLR,0.02,0.00,VWS V15.00,2013-12-07 11:25:00,
2013-12-07 06:27:00,66.1,64.0,30.08,WSW,246,2.0,0.0,93,0.02,,SCT100,0.02,0.00,VWS V14.01,2013-12-07 11:27:00,
2013-12-07 06:30:00,65.5,64.0,30.11,SW,234,2.0,0.0,95,0.00,,CLR,0.02,0.00,VWS V15.00,2013-12-07 11:30:00,
2013-12-07 06:32:00,66.0,64.2,30.08,West,281,3.0,0.0,94,0.02,,SCT100,0.02,0.00,VWS V14.01,2013-12-07 11:32:00,
2013-12-07 06:35:00,65.5,64.0,30.11,SW,219,0.0,0.0,95,0.00,,CLR,0.02,0.00,VWS V15.00,2013-12-07 11:35:00,
2013-12-07 06:37:00,66.0,64.2,30.08,WNW,299,0.0,0.0,94,0.01,,-RA,0.02,0.00,VWS V14.01,2013-12-07 11:37:00,
2013-12-07 06:40:00,65.5,64.0,30.11,SW,219,0.0,0.0,95,0.00,,CLR,0.02,0.00,VWS V15.00,2013-12-07 11:40:00,
2013-12-07 06:42:00,65.9,64.1,30.08,West,261,1.0,0.0,94,0.01,,-RA,0.02,0.00,VWS V14.01,2013-12-07 11:42:00,
2013-12-07 06:45:00,65.5,64.0,30.11,SW,235,0.0,0.0,95,0.01,,CLR,0.03,0.00,VWS V15.00,2013-12-07 11:45:00,
2013-12-07 06:47:00,65.9,64.1,30.08,West,276,2.0,0.0,94,0.01,,-RA,0.02,0.00,VWS V14.01,2013-12-07 11:47:00,
2013-12-07 06:50:00,65.4,63.9,30.12,SW,235,0.0,0.0,95,0.01,,CLR,0.03,0.00,VWS V15.00,2013-12-07 11:50:00,
2013-12-07 06:52:00,65.8,64.0,30.09,West,281,2.0,0.0,94,0.01,,-RA,0.02,0.00,VWS V14.01,2013-12-07 11:52:00,
2013-12-07 06:55:00,65.4,63.9,30.12,SW,235,0.0,0.0,95,0.01,,CLR,0.03,0.00,VWS V15.00,2013-12-07 11:55:00,
2013-12-07 06:57:00,65.8,64.0,30.09,West,281,0.0,0.0,94,0.01,,-RA,0.02,0.00,VWS V14.01,2013-12-07 11:57:00,
2013-12-07 07:00:00,65.4,63.9,30.13,NNW,342,2.0,0.0,95,0.01,,CLR,0.03,0.00,VWS V15.00,2013-12-07 12:00:00,
2013-12-07 07:03:00,65.7,63.9,30.09,West,281,0.0,0.0,94,0.01,,-RA,0.02,0.00,VWS V14.01,2013-12-07 12:03:00,
2013-12-07 07:05:00,61.8,56.2,30.15,NE,53,11.0,0.0,82,0.01,,CLR,0.03,0.00,VWS V15.00,2013-12-07 12:05:00,
2013-12-07 07:08:00,65.7,63.9,30.10,West,281,0.0,0.0,94,0.00,,-RA,0.02,0.00,VWS V14.01,2013-12-07 12:08:00,
2013-12-07 07:10:00,56.2,52.7,30.16,NNE,28,14.0,0.0,88,0.03,,CLR,0.05,0.00,VWS V15.00,2013-12-07 12:10:00,
2013-12-07 07:13:00,65.6,63.8,30.10,West,281,1.0,0.0,94,0.00,,-RA,0.02,0.00,VWS V14.01,2013-12-07 12:13:00,
2013-12-07 07:15:00,53.9,51.6,30.16,NNE,22,9.0,0.0,92,0.04,,CLR,0.06,0.00,VWS V15.00,2013-12-07 12:15:00,
2013-12-07 07:18:00,65.6,64.1,30.10,West,281,1.0,0.0,95,0.00,,-RA,0.02,0.00,VWS V14.01,2013-12-07 12:18:00,
2013-12-07 07:20:00,53.1,51.1,30.17,NE,46,12.0,0.0,93,0.04,,CLR,0.06,0.00,VWS V15.00,2013-12-07 12:20:00,
2013-12-07 07:23:00,65.6,64.1,30.11,West,281,1.0,0.0,95,0.00,,-RA,0.02,0.00,VWS V14.01,2013-12-07 12:23:00,
2013-12-07 07:25:00,52.5,50.5,30.17,NNE,15,9.0,0.0,93,0.04,,CLR,0.06,7.00,VWS V15.00,2013-12-07 12:25:00,
2013-12-07 07:28:00,65.5,64.0,30.11,WSW,242,2.0,0.0,95,0.00,,-RA,0.02,0.00,VWS V14.01,2013-12-07 12:28:00,
2013-12-07 07:30:00,52.2,50.5,30.18,NE,51,12.0,0.0,94,0.04,,CLR,0.06,7.00,VWS V15.00,2013-12-07 12:30:00,
2013-12-07 07:33:00,65.5,64.0,30.11,SW,219,1.0,0.0,95,0.00,,-RA,0.02,0.00,VWS V14.01,2013-12-07 12:33:00,
2013-12-07 07:35:00,51.9,50.2,30.19,NE,46,13.0,0.0,94,0.05,,CLR,0.07,9.00,VWS V15.00,2013-12-07 12:35:00,
2013-12-07 07:38:00,65.5,64.0,30.11,SW,219,0.0,0.0,95,0.00,,-RA,0.02,0.00,VWS V14.01,2013-12-07 12:38:00,
2013-12-07 07:40:00,51.6,50.2,30.19,NE,52,12.0,0.0,95,0.05,,CLR,0.07,12.00,VWS V15.00,2013-12-07 12:40:00,
2013-12-07 07:43:00,65.5,64.0,30.12,SW,235,0.0,0.0,95,0.01,,-RA,0.03,0.00,VWS V14.01,2013-12-07 12:43:00,
2013-12-07 07:45:00,51.2,49.2,30.19,NE,50,10.0,0.0,93,0.05,,CLR,0.07,9.00,VWS V15.00,2013-12-07 12:45:00,
2013-12-07 07:48:00,65.5,64.0,30.12,SW,235,0.0,0.0,95,0.01,,-RA,0.03,0.00,VWS V14.01,2013-12-07 12:48:00,
2013-12-07 07:50:00,50.6,48.7,30.20,NE,46,13.0,0.0,93,0.04,,CLR,0.07,11.00,VWS V15.00,2013-12-07 12:50:00,
2013-12-07 07:53:00,65.4,63.9,30.12,SW,235,0.0,0.0,95,0.01,,-RA,0.03,0.00,VWS V14.01,2013-12-07 12:53:00,
2013-12-07 07:55:00,50.3,48.4,30.20,ENE,59,18.0,0.0,93,0.04,,CLR,0.07,12.00,VWS V15.00,2013-12-07 12:55:00,
2013-12-07 07:58:00,65.4,63.9,30.13,SW,235,0.0,0.0,95,0.01,,-RA,0.03,0.00,VWS V14.01,2013-12-07 12:58:00,
2013-12-07 08:00:00,50.1,48.4,30.21,NE,39,12.0,0.0,94,0.04,,CLR,0.07,19.00,VWS V15.00,2013-12-07 13:00:00,
2013-12-07 08:03:00,64.0,58.4,30.15,NE,42,15.0,0.0,82,0.01,,-RA,0.03,0.00,VWS V14.01,2013-12-07 13:03:00,
2013-12-07 08:05:00,50.0,48.3,30.21,NNE,31,9.0,0.0,94,0.04,,CLR,0.07,40.00,VWS V15.00,2013-12-07 13:05:00,
2013-12-07 08:09:00,57.1,53.3,30.15,NNE,15,14.0,0.0,87,0.03,,-RA,0.05,0.00,VWS V14.01,2013-12-07 13:09:00,
2013-12-07 08:10:00,50.0,48.3,30.22,NNE,27,6.0,0.0,94,0.04,,CLR,0.07,35.00,VWS V15.00,2013-12-07 13:10:00,
2013-12-07 08:14:00,54.1,51.5,30.16,NE,37,10.0,0.0,91,0.04,,-RA,0.06,0.00,VWS V14.01,2013-12-07 13:14:00,
2013-12-07 08:15:00,50.0,48.3,30.21,North,5,4.0,0.0,94,0.02,,CLR,0.07,54.00,VWS V15.00,2013-12-07 13:15:00,
2013-12-07 08:19:00,53.1,51.1,30.17,ENE,58,4.0,0.0,93,0.04,,-RA,0.06,0.00,VWS V14.01,2013-12-07 13:19:00,
2013-12-07 08:20:00,49.9,48.2,30.22,NNE,24,13.0,0.0,94,0.01,,CLR,0.07,42.00,VWS V15.00,2013-12-07 13:20:00,
2013-12-07 08:24:00,52.5,50.5,30.17,NE,37,10.0,0.0,93,0.04,,-RA,0.06,7.00,VWS V14.01,2013-12-07 13:24:00,
2013-12-07 08:25:00,49.9,48.2,30.22,NE,51,10.0,0.0,94,0.01,,CLR,0.07,37.00,VWS V15.00,2013-12-07 13:25:00,
2013-12-07 08:29:00,52.3,50.6,30.18,NNE,14,5.0,0.0,94,0.04,,-RA,0.06,9.00,VWS V14.01,2013-12-07 13:29:00,
2013-12-07 08:30:00,49.9,48.2,30.23,NE,39,13.0,0.0,94,0.01,,CLR,0.07,28.00,VWS V15.00,2013-12-07 13:30:00,
2013-12-07 08:34:00,51.9,50.2,30.19,NE,36,10.0,0.0,94,0.05,,-RA,0.07,9.00,VWS V14.01,2013-12-07 13:34:00,
2013-12-07 08:35:00,49.8,48.2,30.23,NE,40,10.0,0.0,94,0.01,,CLR,0.07,39.00,VWS V15.00,2013-12-07 13:35:00,
2013-12-07 08:39:00,51.7,50.3,30.19,NE,45,9.0,0.0,95,0.05,,-RA,0.07,11.00,VWS V14.01,2013-12-07 13:39:00,
2013-12-07 08:40:00,49.8,48.2,30.23,ENE,62,5.0,0.0,94,0.00,,CLR,0.07,42.00,VWS V15.00,2013-12-07 13:40:00,
2013-12-07 08:44:00,51.3,49.6,30.19,NE,47,13.0,0.0,94,0.05,,-RA,0.07,11.00,VWS V14.01,2013-12-07 13:44:00,
2013-12-07 08:45:00,49.7,48.0,30.24,NNE,28,11.0,0.0,94,0.00,,CLR,0.07,37.00,VWS V15.00,2013-12-07 13:45:00,
2013-12-07 08:49:00,50.7,48.8,30.20,East,79,10.0,0.0,93,0.04,,-RA,0.07,11.00,VWS V14.01,2013-12-07 13:49:00,
2013-12-07 08:50:00,49.6,48.0,30.24,NE,49,11.0,0.0,94,0.00,,CLR,0.07,69.00,VWS V15.00,2013-12-07 13:50:00,
2013-12-07 08:54:00,50.3,48.4,30.20,NE,49,14.0,0.0,93,0.04,,,0.07,12.00,VWS V14.01,2013-12-07 13:54:00,
2013-12-07 08:55:00,49.7,48.0,30.24,NE,43,7.0,0.0,94,0.00,,CLR,0.07,176.00,VWS V15.00,2013-12-07 13:55:00,
2013-12-07 08:59:00,50.1,48.4,30.21,ENE,65,12.0,0.0,94,0.04,,,0.07,19.00,VWS V14.01,2013-12-07 13:59:00,
2013-12-07 09:00:00,49.9,48.0,30.24,ENE,57,7.0,0.0,93,0.00,,CLR,0.07,134.00,VWS V15.00,2013-12-07 14:00:00,
2013-12-07 09:04:00,50.0,48.3,30.21,NE,52,11.0,0.0,94,0.04,,,0.07,40.00,VWS V14.01,2013-12-07 14:04:00,
2013-12-07 09:05:00,49.9,48.0,30.24,ENE,59,7.0,0.0,93,0.00,,CLR,0.07,105.00,VWS V15.00,2013-12-07 14:05:00,
2013-12-07 09:09:00,50.0,48.3,30.22,NE,36,9.0,0.0,94,0.04,,,0.07,35.00,VWS V14.01,2013-12-07 14:09:00,
2013-12-07 09:10:00,49.8,47.9,30.25,NNE,30,11.0,0.0,93,0.00,,CLR,0.07,107.00,VWS V15.00,2013-12-07 14:10:00,
2013-12-07 09:14:00,50.0,48.3,30.21,North,5,6.0,0.0,94,0.02,,,0.07,54.00,VWS V14.01,2013-12-07 14:14:00,
2013-12-07 09:15:00,49.7,47.8,30.25,NE,44,12.0,0.0,93,0.00,,CLR,0.07,118.00,VWS V15.00,2013-12-07 14:15:00,
2013-12-07 09:19:00,49.9,48.2,30.22,ENE,60,11.0,0.0,94,0.01,,,0.07,53.00,VWS V14.01,2013-12-07 14:19:00,
2013-12-07 09:20:00,49.9,48.2,30.25,ENE,67,8.0,0.0,94,0.00,,CLR,0.07,116.00,VWS V15.00,2013-12-07 14:20:00,
2013-12-07 09:24:00,49.9,48.2,30.22,NE,51,10.0,0.0,94,0.01,,,0.07,37.00,VWS V14.01,2013-12-07 14:24:00,
2013-12-07 09:25:00,49.9,47.7,30.25,NE,51,11.0,0.0,92,0.00,,CLR,0.07,95.00,VWS V15.00,2013-12-07 14:25:00,
2013-12-07 09:29:00,49.9,48.2,30.23,NE,39,13.0,0.0,94,0.01,,,0.07,28.00,VWS V14.01,2013-12-07 14:29:00,
2013-12-07 09:30:00,49.7,47.5,30.26,NE,35,9.0,0.0,92,0.00,,CLR,0.07,76.00,VWS V15.00,2013-12-07 14:30:00,
2013-12-07 09:34:00,49.8,48.2,30.23,NE,40,10.0,0.0,94,0.01,,,0.07,39.00,VWS V14.01,2013-12-07 14:34:00,
2013-12-07 09:35:00,49.7,47.2,30.26,NE,55,9.0,0.0,91,0.00,,CLR,0.07,49.00,VWS V15.00,2013-12-07 14:35:00,
2013-12-07 09:39:00,49.8,48.2,30.23,NE,49,7.0,0.0,94,0.00,,OVC023,0.07,42.00,VWS V14.01,2013-12-07 14:39:00,
2013-12-07 09:40:00,49.6,47.4,30.26,NNE,26,6.0,0.0,92,0.00,,CLR,0.07,97.00,VWS V15.00,2013-12-07 14:40:00,
2013-12-07 09:44:00,49.7,48.0,30.24,NNE,28,11.0,0.0,94,0.00,,OVC023,0.07,37.00,VWS V14.01,2013-12-07 14:44:00,
2013-12-07 09:45:00,49.5,47.0,30.26,NE,34,14.0,0.0,91,0.00,,CLR,0.07,77.00,VWS V15.00,2013-12-07 14:45:00,
2013-12-07 09:49:00,49.6,48.0,30.24,NE,49,11.0,0.0,94,0.00,,OVC023,0.07,69.00,VWS V14.01,2013-12-07 14:49:00,
2013-12-07 09:50:00,49.5,47.3,30.26,NNE,30,6.0,0.0,92,0.00,,CLR,0.07,186.00,VWS V15.00,2013-12-07 14:50:00,
2013-12-07 09:54:00,49.7,48.0,30.24,NE,43,7.0,0.0,94,0.00,,OVC023,0.07,176.00,VWS V14.01,2013-12-07 14:54:00,
2013-12-07 09:55:00,49.6,47.1,30.26,NNE,32,8.0,0.0,91,0.00,,CLR,0.07,104.00,VWS V15.00,2013-12-07 14:55:00,
2013-12-07 09:59:00,49.9,48.0,30.24,ENE,57,7.0,0.0,93,0.00,,OVC023,0.07,134.00,VWS V14.01,2013-12-07 14:59:00,
2013-12-07 10:00:00,49.6,47.1,30.26,NE,40,10.0,0.0,91,0.00,,CLR,0.07,84.00,VWS V15.00,2013-12-07 15:00:00,
2013-12-07 10:05:00,49.9,48.0,30.24,ENE,59,7.0,0.0,93,0.00,,OVC023,0.07,105.00,VWS V14.01,2013-12-07 15:05:00,
2013-12-07 10:09:00,49.8,47.9,30.25,NNE,30,11.0,0.0,93,0.00,,OVC023,0.07,107.00,VWS V14.01,2013-12-07 15:09:00,
2013-12-07 10:10:00,49.6,47.4,30.26,North,5,6.0,0.0,92,0.00,,CLR,0.07,76.00,VWS V15.00,2013-12-07 15:10:00,
2013-12-07 10:14:00,49.7,47.8,30.25,NE,44,12.0,0.0,93,0.00,,OVC023,0.07,118.00,VWS V14.01,2013-12-07 15:14:00,
2013-12-07 10:15:00,49.4,46.9,30.26,North,355,8.0,0.0,91,0.00,,CLR,0.07,98.00,VWS V15.00,2013-12-07 15:15:00,
2013-12-07 10:19:00,49.9,48.2,30.25,ENE,67,8.0,0.0,94,0.00,,OVC023,0.07,116.00,VWS V14.01,2013-12-07 15:19:00,
2013-12-07 10:20:00,49.3,47.1,30.26,NE,53,9.0,0.0,92,0.00,,CLR,0.07,90.00,VWS V15.00,2013-12-07 15:20:00,
2013-12-07 10:25:00,49.9,47.7,30.25,NE,51,11.0,0.0,92,0.00,,OVC023,0.07,95.00,VWS V14.01,2013-12-07 15:25:00,
2013-12-07 10:30:00,49.8,47.6,30.26,North,360,6.0,0.0,92,0.00,,OVC023,0.07,76.00,VWS V14.01,2013-12-07 15:30:00,
2013-12-07 10:35:00,49.7,47.2,30.26,NE,39,16.0,0.0,91,0.00,,OVC023,0.07,49.00,VWS V14.01,2013-12-07 15:35:00,
2013-12-07 10:40:00,49.6,47.4,30.26,NE,49,6.0,0.0,92,0.00,,OVC023,0.07,77.00,VWS V14.01,2013-12-07 15:40:00,
2013-12-07 10:45:00,49.5,47.0,30.25,North,5,11.0,0.0,91,0.00,,OVC023,0.07,84.00,VWS V14.01,2013-12-07 15:45:00,
2013-12-07 10:50:00,49.5,47.3,30.25,NE,44,14.0,0.0,92,0.00,,OVC023,0.07,186.00,VWS V14.01,2013-12-07 15:50:00,
2013-12-07 10:55:00,49.6,47.1,30.26,NE,48,9.0,0.0,91,0.00,,OVC023,0.07,104.00,VWS V14.01,2013-12-07 15:55:00,
2013-12-07 11:00:00,49.6,47.1,30.26,NE,36,7.0,0.0,91,0.00,,OVC023,0.07,84.00,VWS V14.01,2013-12-07 16:00:00,
2013-12-07 11:05:00,49.6,47.4,30.26,NE,45,9.0,0.0,92,0.00,,OVC023,0.07,104.00,VWS V14.01,2013-12-07 16:05:00,
2013-12-07 11:10:00,49.6,47.4,30.26,NNE,32,12.0,0.0,92,0.00,,OVC023,0.07,72.00,VWS V14.01,2013-12-07 16:10:00,
2013-12-07 11:15:00,49.4,46.9,30.26,NE,41,10.0,0.0,91,0.00,,OVC023,0.07,97.00,VWS V14.01,2013-12-07 16:15:00,
2013-12-07 11:20:00,49.3,47.1,30.26,NNE,32,8.0,0.0,92,0.00,,OVC023,0.07,91.00,VWS V14.01,2013-12-07 16:20:00,
2013-12-07 11:25:00,49.4,46.0,30.26,North,350,11.0,0.0,88,0.00,,CLR,0.07,153.00,VWS V15.00,2013-12-07 16:25:00,
2013-12-07 11:26:00,49.1,46.6,30.27,NE,53,12.0,0.0,91,0.00,,OVC023,0.07,95.00,VWS V14.01,2013-12-07 16:26:00,
2013-12-07 11:30:00,49.4,46.0,30.27,ENE,61,10.0,0.0,88,0.00,,CLR,0.07,118.00,VWS V15.00,2013-12-07 16:30:00,
2013-12-07 11:31:00,48.9,46.4,30.26,NE,38,10.0,0.0,91,0.00,,OVC023,0.07,132.00,VWS V14.01,2013-12-07 16:31:00,
2013-12-07 11:35:00,49.3,45.9,30.26,NNE,33,12.0,0.0,88,0.00,,CLR,0.07,105.00,VWS V15.00,2013-12-07 16:35:00,
2013-12-07 11:36:00,48.9,46.7,30.26,ENE,67,8.0,0.0,92,0.00,,OVC023,0.07,118.00,VWS V14.01,2013-12-07 16:36:00,
2013-12-07 11:40:00,49.1,46.0,30.26,North,360,8.0,0.0,89,0.00,,CLR,0.07,116.00,VWS V15.00,2013-12-07 16:40:00,
2013-12-07 11:41:00,49.0,46.5,30.26,NE,46,10.0,0.0,91,0.00,,OVC025,0.07,146.00,VWS V14.01,2013-12-07 16:41:00,
2013-12-07 11:45:00,49.1,46.0,30.26,NE,51,16.0,0.0,89,0.00,,CLR,0.07,134.00,VWS V15.00,2013-12-07 16:45:00,
2013-12-07 11:46:00,49.1,46.6,30.26,NE,55,10.0,0.0,91,0.00,,OVC025,0.07,109.00,VWS V14.01,2013-12-07 16:46:00,
2013-12-07 11:50:00,49.1,46.0,30.26,NE,44,11.0,0.0,89,0.00,,CLR,0.07,144.00,VWS V15.00,2013-12-07 16:50:00,
2013-12-07 11:51:00,49.0,46.5,30.26,NE,41,9.0,0.0,91,0.00,,OVC025,0.07,95.00,VWS V14.01,2013-12-07 16:51:00,
2013-12-07 11:55:00,49.2,46.1,30.26,ENE,64,9.0,0.0,89,0.00,,CLR,0.07,130.00,VWS V15.00,2013-12-07 16:55:00,
2013-12-07 11:56:00,49.0,46.5,30.26,NE,46,11.0,0.0,91,0.00,,OVC025,0.07,90.00,VWS V14.01,2013-12-07 16:56:00,
2013-12-07 12:00:00,49.0,45.6,30.26,ENE,67,6.0,0.0,88,0.00,,CLR,0.07,109.00,VWS V15.00,2013-12-07 17:00:00,
2013-12-07 12:01:00,49.0,46.5,30.26,ENE,57,7.0,0.0,91,0.00,,OVC025,0.07,121.00,VWS V14.01,2013-12-07 17:01:00,
2013-12-07 12:05:00,49.0,45.6,30.26,NE,41,7.0,0.0,88,0.00,,CLR,0.07,116.00,VWS V15.00,2013-12-07 17:05:00,
2013-12-07 12:06:00,49.1,46.3,30.26,NE,43,10.0,0.0,90,0.00,,OVC025,0.07,144.00,VWS V14.01,2013-12-07 17:06:00,
2013-12-07 12:10:00,49.0,45.9,30.26,NE,49,13.0,0.0,89,0.00,,CLR,0.07,121.00,VWS V15.00,2013-12-07 17:10:00,
2013-12-07 12:11:00,49.1,46.3,30.26,NE,55,10.0,0.0,90,0.00,,OVC025,0.07,162.00,VWS V14.01,2013-12-07 17:11:00,
2013-12-07 12:15:00,49.0,45.6,30.26,NE,49,6.0,0.0,88,0.00,,CLR,0.07,118.00,VWS V15.00,2013-12-07 17:15:00,
2013-12-07 12:16:00,49.2,46.1,30.26,NNE,18,8.0,0.0,89,0.00,,OVC025,0.07,188.00,VWS V14.01,2013-12-07 17:16:00,
2013-12-07 12:20:00,49.2,46.4,30.26,NE,42,5.0,0.0,90,0.00,,CLR,0.07,169.00,VWS V15.00,2013-12-07 17:20:00,
2013-12-07 12:21:00,49.3,46.2,30.26,NE,45,11.0,0.0,89,0.00,,OVC025,0.07,153.00,VWS V14.01,2013-12-07 17:21:00,
2013-12-07 12:25:00,49.5,46.1,30.26,NE,42,7.0,0.0,88,0.00,,CLR,0.07,125.00,VWS V15.00,2013-12-07 17:25:00,
2013-12-07 12:26:00,49.4,46.3,30.26,North,5,9.0,0.0,89,0.00,,OVC025,0.07,139.00,VWS V14.01,2013-12-07 17:26:00,
2013-12-07 12:30:00,49.4,45.7,30.25,East,82,10.0,0.0,87,0.00,,CLR,0.07,102.00,VWS V15.00,2013-12-07 17:30:00,
2013-12-07 12:31:00,49.4,46.3,30.26,North,355,9.0,0.0,89,0.00,,OVC025,0.07,114.00,VWS V14.01,2013-12-07 17:31:00,
2013-12-07 12:35:00,49.2,46.1,30.26,NE,35,9.0,0.0,89,0.00,,CLR,0.07,109.00,VWS V15.00,2013-12-07 17:35:00,
2013-12-07 12:36:00,49.2,45.8,30.26,NE,46,12.0,0.0,88,0.00,,OVC029,0.07,104.00,VWS V14.01,2013-12-07 17:36:00,
2013-12-07 12:40:00,49.2,45.8,30.26,ENE,72,10.0,0.0,88,0.00,,CLR,0.07,114.00,VWS V15.00,2013-12-07 17:40:00,
2013-12-07 12:41:00,49.1,46.0,30.27,NE,49,12.0,0.0,89,0.00,,OVC029,0.07,109.00,VWS V14.01,2013-12-07 17:41:00,
2013-12-07 12:45:00,49.2,45.8,30.26,ENE,74,10.0,0.0,88,0.00,,CLR,0.07,104.00,VWS V15.00,2013-12-07 17:45:00,
2013-12-07 12:46:00,49.1,45.7,30.26,NE,51,13.0,0.0,88,0.00,,OVC029,0.07,156.00,VWS V14.01,2013-12-07 17:46:00,
2013-12-07 12:50:00,49.2,45.8,30.26,NE,36,6.0,0.0,88,0.00,,CLR,0.07,146.00,VWS V15.00,2013-12-07 17:50:00,
2013-12-07 12:51:00,49.1,45.7,30.26,ENE,60,5.0,0.0,88,0.00,,OVC031,0.07,134.00,VWS V14.01,2013-12-07 17:51:00,
2013-12-07 12:55:00,49.4,45.7,30.26,ENE,57,9.0,0.0,87,0.00,,CLR,0.07,160.00,VWS V15.00,2013-12-07 17:55:00,
2013-12-07 12:56:00,49.1,45.7,30.26,ENE,66,9.0,0.0,88,0.00,,OVC031,0.07,120.00,VWS V14.01,2013-12-07 17:56:00,
2013-12-07 13:00:00,49.4,45.7,30.25,NE,46,5.0,0.0,87,0.00,,CLR,0.07,102.00,VWS V15.00,2013-12-07 18:00:00,
2013-12-07 13:01:00,49.1,46.0,30.26,NE,40,11.0,0.0,89,0.00,,OVC031,0.07,114.00,VWS V14.01,2013-12-07 18:01:00,
2013-12-07 13:05:00,49.4,45.7,30.25,ENE,76,11.0,0.0,87,0.00,,CLR,0.07,128.00,VWS V15.00,2013-12-07 18:05:00,
2013-12-07 13:06:00,49.0,45.6,30.26,ENE,74,10.0,0.0,88,0.00,,OVC031,0.07,114.00,VWS V14.01,2013-12-07 18:06:00,
2013-12-07 13:10:00,49.4,45.4,30.25,North,5,5.0,0.0,86,0.00,,CLR,0.07,116.00,VWS V15.00,2013-12-07 18:10:00,
2013-12-07 13:12:00,49.0,45.6,30.26,NE,46,7.0,0.0,88,0.00,,OVC031,0.07,120.00,VWS V14.01,2013-12-07 18:12:00,
2013-12-07 13:15:00,49.3,45.3,30.25,East,91,10.0,0.0,86,0.00,,CLR,0.07,120.00,VWS V15.00,2013-12-07 18:15:00,
2013-12-07 13:17:00,49.0,45.9,30.26,NE,43,3.0,0.0,89,0.00,,OVC031,0.07,125.00,VWS V14.01,2013-12-07 18:17:00,
2013-12-07 13:20:00,49.3,45.3,30.25,ENE,60,7.0,0.0,86,0.00,,CLR,0.07,97.00,VWS V15.00,2013-12-07 18:20:00,
2013-12-07 13:22:00,49.4,46.0,30.26,NE,44,4.0,0.0,88,0.00,,OVC031,0.07,153.00,VWS V14.01,2013-12-07 18:22:00,
2013-12-07 13:25:00,49.4,45.7,30.25,ENE,75,9.0,0.0,87,0.00,,CLR,0.07,113.00,VWS V15.00,2013-12-07 18:25:00,
2013-12-07 13:27:00,49.5,46.1,30.26,ENE,60,9.0,0.0,88,0.00,,OVC031,0.07,135.00,VWS V14.01,2013-12-07 18:27:00,
2013-12-07 13:30:00,49.3,45.3,30.25,NE,54,6.0,0.0,86,0.00,,CLR,0.07,105.00,VWS V15.00,2013-12-07 18:30:00,
2013-12-07 13:32:00,49.3,45.6,30.26,NE,49,9.0,0.0,87,0.00,,OVC031,0.07,109.00,VWS V14.01,2013-12-07 18:32:00,
2013-12-07 13:35:00,49.4,45.4,30.25,ENE,68,8.0,14.0,86,0.00,,CLR,0.07,107.00,VWS V15.00,2013-12-07 18:35:00,
2013-12-07 13:37:00,49.3,45.9,30.26,ENE,57,7.0,0.0,88,0.00,,OVC031,0.07,93.00,VWS V14.01,2013-12-07 18:37:00,
2013-12-07 13:42:00,49.2,45.8,30.26,NE,34,6.0,0.0,88,0.00,,OVC031,0.07,105.00,VWS V14.01,2013-12-07 18:42:00,
2013-12-07 13:45:00,49.5,45.5,30.25,NE,40,15.0,15.0,86,0.00,,CLR,0.07,114.00,VWS V15.00,2013-12-07 18:45:00,
2013-12-07 13:47:00,49.1,45.4,30.26,NE,52,9.0,0.0,87,0.00,,OVC031,0.07,148.00,VWS V14.01,2013-12-07 18:47:00,
2013-12-07 13:50:00,49.4,45.4,30.26,NE,45,11.0,14.0,86,0.00,,CLR,0.07,95.00,VWS V15.00,2013-12-07 18:50:00,
2013-12-07 13:52:00,49.3,45.6,30.26,ENE,63,9.0,0.0,87,0.00,,OVC031,0.07,160.00,VWS V14.01,2013-12-07 18:52:00,
2013-12-07 13:55:00,49.4,45.1,30.26,NE,37,11.0,14.0,85,0.00,,CLR,0.07,91.00,VWS V15.00,2013-12-07 18:55:00,
2013-12-07 13:57:00,49.4,45.4,30.25,NNE,32,10.0,0.0,86,0.00,,OVC031,0.07,134.00,VWS V14.01,2013-12-07 18:57:00,
2013-12-07 14:00:00,49.4,44.8,30.26,NE,55,7.0,14.0,84,0.00,,CLR,0.07,90.00,VWS V15.00,2013-12-07 19:00:00,
2013-12-07 14:02:00,49.4,45.4,30.25,ENE,65,8.0,0.0,86,0.00,,OVC031,0.07,128.00,VWS V14.01,2013-12-07 19:02:00,
2013-12-07 14:05:00,49.4,45.4,30.26,NE,41,9.0,14.0,86,0.00,,CLR,0.07,83.00,VWS V15.00,2013-12-07 19:05:00,
2013-12-07 14:07:00,49.4,45.4,30.25,NE,42,10.0,0.0,86,0.00,,OVC031,0.07,121.00,VWS V14.01,2013-12-07 19:07:00,
2013-12-07 14:10:00,49.3,45.0,30.26,NE,49,9.0,14.0,85,0.00,,CLR,0.07,65.00,VWS V15.00,2013-12-07 19:10:00,
2013-12-07 14:12:00,49.3,45.3,30.25,NE,39,7.0,0.0,86,0.00,,OVC031,0.07,128.00,VWS V14.01,2013-12-07 19:12:00,
2013-12-07 14:15:00,49.2,44.9,30.26,ENE,63,8.0,14.0,85,0.00,,CLR,0.07,49.00,VWS V15.00,2013-12-07 19:15:00,
2013-12-07 14:17:00,49.4,45.4,30.25,ENE,64,10.0,0.0,86,0.00,,OVC031,0.07,113.00,VWS V14.01,2013-12-07 19:17:00,
2013-12-07 14:20:00,49.2,44.9,30.27,ENE,60,5.0,14.0,85,0.00,,CLR,0.07,46.00,VWS V15.00,2013-12-07 19:20:00,
2013-12-07 14:22:00,49.3,45.6,30.25,NE,53,9.0,0.0,87,0.00,,OVC031,0.07,114.00,VWS V14.01,2013-12-07 19:22:00,
2013-12-07 14:25:00,49.2,44.9,30.27,NNE,33,6.0,14.0,85,0.00,,CLR,0.07,46.00,VWS V15.00,2013-12-07 19:25:00,
2013-12-07 14:27:00,49.4,45.4,30.25,NE,50,9.0,0.0,86,0.00,,OVC031,0.07,109.00,VWS V14.01,2013-12-07 19:27:00,
2013-12-07 14:30:00,49.2,44.9,30.27,NE,35,11.0,14.0,85,0.00,,CLR,0.07,37.00,VWS V15.00,2013-12-07 19:30:00,
2013-12-07 14:35:00,49.2,44.6,30.27,ENE,77,5.0,14.0,84,0.00,,CLR,0.07,46.00,VWS V15.00,2013-12-07 19:35:00,
2013-12-07 14:40:00,49.2,44.6,30.27,East,82,11.0,14.0,84,0.00,,CLR,0.07,49.00,VWS V15.00,2013-12-07 19:40:00,
2013-12-07 14:43:00,49.4,45.4,30.25,ENE,68,8.0,14.0,86,0.00,,,0.07,107.00,VWS V14.01,2013-12-07 19:43:00,
2013-12-07 14:45:00,49.2,44.6,30.27,NE,40,9.0,14.0,84,0.00,,CLR,0.07,35.00,VWS V15.00,2013-12-07 19:45:00,
2013-12-07 14:49:00,49.4,45.4,30.25,NE,38,11.0,14.0,86,0.00,,OVC033,0.07,98.00,VWS V14.01,2013-12-07 19:49:00,
2013-12-07 14:50:00,49.2,44.6,30.27,NE,46,9.0,14.0,84,0.00,,CLR,0.07,26.00,VWS V15.00,2013-12-07 19:50:00,
2013-12-07 14:54:00,49.4,45.1,30.26,ENE,67,13.0,14.0,85,0.00,,OVC033,0.07,95.00,VWS V14.01,2013-12-07 19:54:00,
2013-12-07 14:55:00,49.2,44.9,30.26,ENE,63,11.0,14.0,85,0.00,,CLR,0.07,32.00,VWS V15.00,2013-12-07 19:55:00,
2013-12-07 14:59:00,49.4,45.1,30.26,ENE,69,11.0,14.0,85,0.00,,OVC033,0.07,90.00,VWS V14.01,2013-12-07 19:59:00,
2013-12-07 15:00:00,49.2,44.3,30.27,ENE,59,7.0,14.0,83,0.00,,CLR,0.07,30.00,VWS V15.00,2013-12-07 20:00:00,
2013-12-07 15:04:00,49.4,44.8,30.26,NE,44,5.0,14.0,84,0.00,,OVC033,0.07,83.00,VWS V14.01,2013-12-07 20:04:00,
2013-12-07 15:05:00,49.2,44.6,30.28,NNE,27,6.0,14.0,84,0.00,,CLR,0.07,25.00,VWS V15.00,2013-12-07 20:05:00,
2013-12-07 15:09:00,49.3,45.0,30.26,ENE,65,8.0,14.0,85,0.00,,OVC033,0.07,65.00,VWS V14.01,2013-12-07 20:09:00,
2013-12-07 15:10:00,49.2,44.3,30.28,ENE,65,4.0,14.0,83,0.00,,CLR,0.07,28.00,VWS V15.00,2013-12-07 20:10:00,
2013-12-07 15:14:00,49.2,44.6,30.26,NE,49,6.0,14.0,84,0.00,,OVC033,0.07,49.00,VWS V14.01,2013-12-07 20:14:00,
2013-12-07 15:15:00,49.2,44.3,30.28,NE,46,7.0,14.0,83,0.00,,CLR,0.07,18.00,VWS V15.00,2013-12-07 20:15:00,
2013-12-07 15:19:00,49.2,44.9,30.27,NE,49,6.0,14.0,85,0.00,,OVC033,0.07,46.00,VWS V14.01,2013-12-07 20:19:00,
2013-12-07 15:20:00,49.1,44.2,30.28,NNE,30,5.0,14.0,83,0.00,,CLR,0.07,16.00,VWS V15.00,2013-12-07 20:20:00,
2013-12-07 15:24:00,49.2,44.9,30.27,ENE,66,6.0,14.0,85,0.00,,OVC033,0.07,46.00,VWS V14.01,2013-12-07 20:24:00,
2013-12-07 15:25:00,49.1,44.5,30.28,NNE,25,5.0,14.0,84,0.00,,CLR,0.07,14.00,VWS V15.00,2013-12-07 20:25:00,
2013-12-07 15:29:00,49.3,45.0,30.27,ENE,60,10.0,14.0,85,0.00,,OVC033,0.07,39.00,VWS V14.01,2013-12-07 20:29:00,
2013-12-07 15:30:00,49.0,43.8,30.29,NNE,29,10.0,14.0,82,0.00,,CLR,0.07,11.00,VWS V15.00,2013-12-07 20:30:00,
2013-12-07 15:34:00,49.2,44.6,30.27,ENE,65,10.0,14.0,84,0.00,,OVC033,0.07,42.00,VWS V14.01,2013-12-07 20:34:00,
2013-12-07 15:35:00,49.0,43.8,30.29,North,11,4.0,14.0,82,0.00,,CLR,0.07,11.00,VWS V15.00,2013-12-07 20:35:00,
2013-12-07 15:39:00,49.3,44.7,30.27,East,85,9.0,14.0,84,0.00,,OVC033,0.07,49.00,VWS V14.01,2013-12-07 20:39:00,
2013-12-07 15:40:00,49.0,43.8,30.29,NE,44,7.0,14.0,82,0.00,,CLR,0.07,12.00,VWS V15.00,2013-12-07 20:40:00,
2013-12-07 15:44:00,49.2,44.6,30.27,NE,36,9.0,14.0,84,0.00,,OVC033,0.07,35.00,VWS V14.01,2013-12-07 20:44:00,
2013-12-07 15:45:00,49.0,43.8,30.29,NE,44,6.0,14.0,82,0.00,,CLR,0.07,7.00,VWS V15.00,2013-12-07 20:45:00,
2013-12-07 15:49:00,49.2,44.6,30.27,NE,46,9.0,14.0,84,0.00,,OVC033,0.07,26.00,VWS V14.01,2013-12-07 20:49:00,
2013-12-07 15:50:00,48.9,44.0,30.30,NE,40,3.0,14.0,83,0.00,,CLR,0.07,5.00,VWS V15.00,2013-12-07 20:50:00,
2013-12-07 15:54:00,49.2,44.9,30.26,ENE,63,11.0,14.0,85,0.00,,OVC033,0.07,32.00,VWS V14.01,2013-12-07 20:54:00,
2013-12-07 15:55:00,48.9,44.0,30.30,NE,49,5.0,14.0,83,0.00,,CLR,0.07,0.00,VWS V15.00,2013-12-07 20:55:00,
2013-12-07 16:00:00,49.2,44.3,30.27,ENE,59,7.0,14.0,83,0.00,,OVC033,0.07,30.00,VWS V14.01,2013-12-07 21:00:00,
2013-12-07 16:05:00,49.2,44.6,30.28,NNE,26,6.0,14.0,84,0.00,,OVC033,0.07,25.00,VWS V14.01,2013-12-07 21:05:00,
2013-12-07 16:10:00,49.2,44.3,30.28,NE,49,4.0,14.0,83,0.00,,OVC033,0.07,28.00,VWS V14.01,2013-12-07 21:10:00,
2013-12-07 16:15:00,49.2,44.3,30.28,NE,46,7.0,14.0,83,0.00,,OVC033,0.07,18.00,VWS V14.01,2013-12-07 21:15:00,
2013-12-07 16:20:00,49.1,44.2,30.28,NE,48,4.0,14.0,83,0.00,,OVC033,0.07,16.00,VWS V14.01,2013-12-07 21:20:00,
2013-12-07 16:25:00,49.1,44.5,30.28,ENE,59,10.0,14.0,84,0.00,,OVC033,0.07,14.00,VWS V14.01,2013-12-07 21:25:00,
2013-12-07 16:30:00,49.0,43.8,30.29,NE,42,7.0,14.0,82,0.00,,OVC033,0.07,11.00,VWS V14.01,2013-12-07 21:30:00,
2013-12-07 16:35:00,49.0,44.1,30.29,NE,43,5.0,14.0,83,0.00,,OVC033,0.07,11.00,VWS V14.01,2013-12-07 21:35:00,
2013-12-07 16:40:00,49.0,43.8,30.29,NNE,33,8.0,14.0,82,0.00,,OVC033,0.07,12.00,VWS V14.01,2013-12-07 21:40:00,
2013-12-07 16:45:00,49.0,43.8,30.29,NE,44,10.0,14.0,82,0.00,,OVC033,0.07,7.00,VWS V14.01,2013-12-07 21:45:00,
2013-12-07 16:50:00,48.9,44.0,30.30,East,83,5.0,14.0,83,0.00,,OVC033,0.07,5.00,VWS V14.01,2013-12-07 21:50:00,
2013-12-07 16:55:00,48.9,43.7,30.29,ENE,63,6.0,14.0,82,0.00,,OVC033,0.07,0.00,VWS V14.01,2013-12-07 21:55:00,
2013-12-07 17:00:00,48.8,43.6,30.29,NE,42,6.0,14.0,82,0.00,,OVC033,0.07,0.00,VWS V14.01,2013-12-07 22:00:00,
2013-12-07 17:05:00,48.8,43.6,30.30,NE,34,5.0,14.0,82,0.00,,OVC033,0.07,0.00,VWS V14.01,2013-12-07 22:05:00,
2013-12-07 17:10:00,48.8,43.6,30.30,NE,36,6.0,14.0,82,0.00,,OVC033,0.07,0.00,VWS V14.01,2013-12-07 22:10:00,
2013-12-07 17:15:00,48.7,43.5,30.30,NE,46,4.0,14.0,82,0.00,,OVC033,0.07,0.00,VWS V14.01,2013-12-07 22:15:00,
2013-12-07 17:20:00,48.2,42.7,30.32,NE,45,6.0,14.0,81,0.00,,CLR,0.07,0.00,VWS V15.00,2013-12-07 22:20:00,
2013-12-07 17:21:00,48.7,43.8,30.30,NE,52,5.0,14.0,83,0.00,,OVC033,0.07,0.00,VWS V14.01,2013-12-07 22:21:00,
2013-12-07 17:25:00,48.2,42.7,30.32,NNE,29,11.0,14.0,81,0.00,,CLR,0.07,0.00,VWS V15.00,2013-12-07 22:25:00,
2013-12-07 17:26:00,48.7,43.5,30.30,East,91,6.0,14.0,82,0.00,,OVC033,0.07,0.00,VWS V14.01,2013-12-07 22:26:00,
2013-12-07 17:30:00,48.1,42.6,30.33,NE,50,11.0,14.0,81,0.00,,CLR,0.07,0.00,VWS V15.00,2013-12-07 22:30:00,
2013-12-07 17:31:00,48.6,43.4,30.31,NE,48,5.0,14.0,82,0.00,,OVC033,0.07,0.00,VWS V14.01,2013-12-07 22:31:00,
2013-12-07 17:35:00,48.1,42.6,30.33,NE,49,7.0,14.0,81,0.00,,CLR,0.07,0.00,VWS V15.00,2013-12-07 22:35:00,
2013-12-07 17:36:00,48.6,43.4,30.31,NE,48,5.0,14.0,82,0.00,,OVC035,0.07,0.00,VWS V14.01,2013-12-07 22:36:00,
2013-12-07 17:40:00,48.1,42.6,30.33,NE,46,7.0,14.0,81,0.00,,CLR,0.07,0.00,VWS V15.00,2013-12-07 22:40:00,
2013-12-07 17:41:00,48.6,42.7,30.31,NE,44,10.0,14.0,80,0.00,,OVC035,0.07,0.00,VWS V14.01,2013-12-07 22:41:00,
2013-12-07 17:45:00,48.0,42.5,30.33,ENE,67,15.0,15.0,81,0.00,,CLR,0.07,0.00,VWS V15.00,2013-12-07 22:45:00,
2013-12-07 17:46:00,48.5,42.6,30.31,NE,49,7.0,14.0,80,0.00,,OVC035,0.07,0.00,VWS V14.01,2013-12-07 22:46:00,
2013-12-07 17:50:00,47.9,42.0,30.34,NE,50,9.0,14.0,80,0.00,,CLR,0.07,0.00,VWS V15.00,2013-12-07 22:50:00,
2013-12-07 17:51:00,48.5,42.6,30.31,NE,42,10.0,14.0,80,0.00,,OVC035,0.07,0.00,VWS V14.01,2013-12-07 22:51:00,
2013-12-07 17:55:00,47.9,42.0,30.34,NE,41,9.0,14.0,80,0.00,,CLR,0.07,0.00,VWS V15.00,2013-12-07 22:55:00,
2013-12-07 17:56:00,48.4,42.5,30.31,ENE,76,9.0,14.0,80,0.00,,OVC035,0.07,0.00,VWS V14.01,2013-12-07 22:56:00,
2013-12-07 18:00:00,47.8,42.3,30.34,NE,44,12.0,14.0,81,0.00,,CLR,0.07,0.00,VWS V15.00,2013-12-07 23:00:00,
2013-12-07 18:01:00,48.3,42.4,30.31,ENE,57,7.0,14.0,80,0.00,,OVC035,0.07,0.00,VWS V14.01,2013-12-07 23:01:00,
2013-12-07 18:05:00,47.8,42.3,30.35,East,80,8.0,14.0,81,0.00,,CLR,0.07,0.00,VWS V15.00,2013-12-07 23:05:00,
2013-12-07 18:06:00,48.3,42.8,30.31,NE,44,9.0,14.0,81,0.00,,OVC035,0.07,0.00,VWS V14.01,2013-12-07 23:06:00,
2013-12-07 18:10:00,47.7,42.2,30.35,ENE,71,10.0,14.0,81,0.00,,CLR,0.07,0.00,VWS V15.00,2013-12-07 23:10:00,
2013-12-07 18:11:00,48.3,42.8,30.32,NE,43,7.0,14.0,81,0.00,,OVC035,0.07,0.00,VWS V14.01,2013-12-07 23:11:00,
2013-12-07 18:15:00,47.7,42.2,30.35,NE,44,9.0,14.0,81,0.00,,CLR,0.07,0.00,VWS V15.00,2013-12-07 23:15:00,
2013-12-07 18:16:00,48.2,42.7,30.32,NE,55,7.0,14.0,81,0.00,,OVC035,0.07,0.00,VWS V14.01,2013-12-07 23:16:00,
2013-12-07 18:20:00,47.7,42.2,30.35,ENE,68,11.0,14.0,81,0.00,,CLR,0.07,0.00,VWS V15.00,2013-12-07 23:20:00,
2013-12-07 18:21:00,48.2,42.7,30.32,ENE,77,4.0,14.0,81,0.00,,OVC035,0.07,0.00,VWS V14.01,2013-12-07 23:21:00,
2013-12-07 18:25:00,47.6,42.1,30.35,NE,45,12.0,14.0,81,0.00,,CLR,0.07,0.00,VWS V15.00,2013-12-07 23:25:00,
2013-12-07 18:26:00,48.1,42.5,30.33,NE,35,5.0,14.0,81,0.00,,OVC035,0.07,0.00,VWS V14.01,2013-12-07 23:26:00,
2013-12-07 18:30:00,47.6,42.1,30.36,ENE,63,8.0,14.0,81,0.00,,CLR,0.07,0.00,VWS V15.00,2013-12-07 23:30:00,
2013-12-07 18:31:00,48.1,42.2,30.33,NE,42,10.0,14.0,80,0.00,,OVC035,0.07,0.00,VWS V14.01,2013-12-07 23:31:00,
2013-12-07 18:35:00,47.6,42.1,30.35,NE,55,7.0,14.0,81,0.00,,CLR,0.07,0.00,VWS V15.00,2013-12-07 23:35:00,
2013-12-07 18:37:00,48.1,42.5,30.33,NE,49,13.0,14.0,81,0.00,,OVC035,0.07,0.00,VWS V14.01,2013-12-07 23:37:00,
2013-12-07 18:40:00,47.5,42.0,30.36,ENE,74,8.0,14.0,81,0.00,,CLR,0.07,0.00,VWS V15.00,2013-12-07 23:40:00,
2013-12-07 18:42:00,48.1,42.5,30.33,NE,36,5.0,14.0,81,0.00,,OVC035,0.07,0.00,VWS V14.01,2013-12-07 23:42:00,
2013-12-07 18:45:00,47.5,42.0,30.36,NE,52,6.0,14.0,81,0.00,,CLR,0.07,0.00,VWS V15.00,2013-12-07 23:45:00,
2013-12-07 18:47:00,48.0,42.1,30.33,ENE,59,9.0,14.0,80,0.00,,OVC035,0.07,0.00,VWS V14.01,2013-12-07 23:47:00,
2013-12-07 18:50:00,47.4,41.9,30.36,NE,46,12.0,14.0,81,0.00,,CLR,0.07,0.00,VWS V15.00,2013-12-07 23:50:00,
2013-12-07 18:52:00,47.9,42.0,30.34,NE,49,6.0,14.0,80,0.00,,OVC035,0.07,0.00,VWS V14.01,2013-12-07 23:52:00,
2013-12-07 18:55:00,47.4,41.9,30.36,ENE,65,5.0,14.0,81,0.00,,CLR,0.07,0.00,VWS V15.00,2013-12-07 23:55:00,
2013-12-07 18:57:00,47.9,42.4,30.34,NE,55,10.0,14.0,81,0.00,,OVC035,0.07,0.00,VWS V14.01,2013-12-07 23:57:00,
2013-12-07 19:00:00,47.4,42.2,30.36,ENE,58,5.0,14.0,82,0.00,,CLR,0.07,0.00,VWS V15.00,2013-12-08 00:00:00,
2013-12-07 19:02:00,47.8,42.3,30.35,NE,54,11.0,14.0,81,0.00,,OVC035,0.07,0.00,VWS V14.01,2013-12-08 00:02:00,
2013-12-07 19:05:00,47.3,42.1,30.36,NE,38,9.0,14.0,82,0.00,,CLR,0.07,0.00,VWS V15.00,2013-12-08 00:05:00,
2013-12-07 19:07:00,47.8,42.3,30.35,ENE,58,7.0,14.0,81,0.00,,OVC035,0.07,0.00,VWS V14.01,2013-12-08 00:07:00,
2013-12-07 19:10:00,47.3,41.8,30.36,ENE,65,6.0,14.0,81,0.00,,CLR,0.07,0.00,VWS V15.00,2013-12-08 00:10:00,
2013-12-07 19:12:00,47.7,42.2,30.35,NE,55,6.0,14.0,81,0.00,,OVC035,0.07,0.00,VWS V14.01,2013-12-08 00:12:00,
2013-12-07 19:15:00,47.3,42.1,30.36,NE,51,7.0,14.0,82,0.00,,CLR,0.07,0.00,VWS V15.00,2013-12-08 00:15:00,
2013-12-07 19:17:00,47.7,42.2,30.35,ENE,72,6.0,14.0,81,0.00,,OVC035,0.07,0.00,VWS V14.01,2013-12-08 00:17:00,
2013-12-07 19:20:00,47.3,41.8,30.36,East,80,8.0,14.0,81,0.00,,CLR,0.07,0.00,VWS V15.00,2013-12-08 00:20:00,
2013-12-07 19:22:00,47.6,42.1,30.35,ENE,71,9.0,14.0,81,0.00,,OVC035,0.07,0.00,VWS V14.01,2013-12-08 00:22:00,
2013-12-07 19:25:00,47.3,42.1,30.36,ENE,76,12.0,14.0,82,0.00,,CLR,0.07,0.00,VWS V15.00,2013-12-08 00:25:00,
2013-12-07 19:27:00,47.6,42.1,30.35,East,86,7.0,14.0,81,0.00,,OVC035,0.07,0.00,VWS V14.01,2013-12-08 00:27:00,
2013-12-07 19:30:00,47.2,42.0,30.37,ENE,64,9.0,14.0,82,0.00,,CLR,0.07,0.00,VWS V15.00,2013-12-08 00:30:00,
2013-12-07 19:32:00,47.6,42.1,30.35,ENE,73,9.0,14.0,81,0.00,,OVC035,0.07,0.00,VWS V14.01,2013-12-08 00:32:00,
2013-12-07 19:35:00,47.2,41.7,30.37,ENE,69,12.0,14.0,81,0.00,,CLR,0.07,0.00,VWS V15.00,2013-12-08 00:35:00,
2013-12-07 19:38:00,47.5,42.0,30.36,ENE,69,9.0,14.0,81,0.00,,OVC035,0.07,0.00,VWS V14.01,2013-12-08 00:38:00,
2013-12-07 19:40:00,47.2,42.0,30.37,ENE,76,7.0,14.0,82,0.00,,CLR,0.07,0.00,VWS V15.00,2013-12-08 00:40:00,
2013-12-07 19:43:00,47.5,42.0,30.36,NE,55,4.0,14.0,81,0.00,,OVC035,0.07,0.00,VWS V14.01,2013-12-08 00:43:00,
2013-12-07 19:45:00,47.1,41.9,30.36,East,82,7.0,14.0,82,0.00,,CLR,0.07,0.00,VWS V15.00,2013-12-08 00:45:00,
2013-12-07 19:48:00,47.4,41.9,30.36,NE,51,10.0,14.0,81,0.00,,OVC035,0.07,0.00,VWS V14.01,2013-12-08 00:48:00,
2013-12-07 19:50:00,47.1,41.9,30.36,East,87,8.0,14.0,82,0.00,,CLR,0.07,0.00,VWS V15.00,2013-12-08 00:50:00,
2013-12-07 19:53:00,47.4,41.9,30.36,ENE,67,8.0,14.0,81,0.00,,OVC035,0.07,0.00,VWS V14.01,2013-12-08 00:53:00,
2013-12-07 19:55:00,47.1,41.9,30.36,ENE,74,7.0,14.0,82,0.00,,CLR,0.07,0.00,VWS V15.00,2013-12-08 00:55:00,
2013-12-07 19:58:00,47.4,41.9,30.36,NE,42,7.0,14.0,81,0.00,,OVC035,0.07,0.00,VWS V14.01,2013-12-08 00:58:00,
2013-12-07 20:00:00,47.1,41.9,30.37,East,88,10.0,14.0,82,0.00,,CLR,0.07,0.00,VWS V15.00,2013-12-08 01:00:00,
2013-12-07 20:03:00,47.3,42.1,30.36,NE,49,5.0,14.0,82,0.00,,OVC035,0.07,0.00,VWS V14.01,2013-12-08 01:03:00,
2013-12-07 20:05:00,47.0,41.8,30.37,ENE,74,9.0,14.0,82,0.00,,CLR,0.07,0.00,VWS V15.00,2013-12-08 01:05:00,
2013-12-07 20:08:00,47.3,42.1,30.36,ENE,69,12.0,14.0,82,0.00,,OVC035,0.07,0.00,VWS V14.01,2013-12-08 01:08:00,
2013-12-07 20:10:00,47.0,41.8,30.37,ENE,64,8.0,14.0,82,0.00,,CLR,0.07,0.00,VWS V15.00,2013-12-08 01:10:00,
2013-12-07 20:13:00,47.3,42.1,30.36,NE,53,4.0,14.0,82,0.00,,OVC035,0.07,0.00,VWS V14.01,2013-12-08 01:13:00,
2013-12-07 20:15:00,47.0,41.8,30.37,ENE,74,11.0,14.0,82,0.00,,CLR,0.07,0.00,VWS V15.00,2013-12-08 01:15:00,
2013-12-07 20:18:00,47.3,41.8,30.36,NE,51,5.0,14.0,81,0.00,,OVC035,0.07,0.00,VWS V14.01,2013-12-08 01:18:00,
2013-12-07 20:20:00,46.9,41.4,30.37,NE,55,9.0,14.0,81,0.00,,CLR,0.07,0.00,VWS V15.00,2013-12-08 01:20:00,
2013-12-07 20:23:00,47.3,41.8,30.36,NE,45,7.0,14.0,81,0.00,,OVC035,0.07,0.00,VWS V14.01,2013-12-08 01:23:00,
2013-12-07 20:25:00,46.9,41.1,30.37,NE,45,13.0,14.0,80,0.00,,CLR,0.07,0.00,VWS V15.00,2013-12-08 01:25:00,
2013-12-07 20:28:00,47.2,42.0,30.37,NE,54,6.0,14.0,82,0.00,,OVC035,0.07,0.00,VWS V14.01,2013-12-08 01:28:00,
2013-12-07 20:30:00,46.9,40.7,30.38,ENE,67,10.0,14.0,79,0.00,,CLR,0.07,0.00,VWS V15.00,2013-12-08 01:30:00,
2013-12-07 20:33:00,47.2,41.7,30.37,ENE,61,12.0,14.0,81,0.00,,OVC035,0.07,0.00,VWS V14.01,2013-12-08 01:33:00,
2013-12-07 20:35:00,46.9,40.7,30.38,NNE,21,11.0,14.0,79,0.00,,CLR,0.07,0.00,VWS V15.00,2013-12-08 01:35:00,
2013-12-07 20:38:00,47.2,42.0,30.37,ENE,75,9.0,14.0,82,0.00,,OVC037,0.07,0.00,VWS V14.01,2013-12-08 01:38:00,
2013-12-07 20:40:00,46.8,40.6,30.38,NNE,24,8.0,14.0,79,0.00,,CLR,0.07,0.00,VWS V15.00,2013-12-08 01:40:00,
2013-12-07 20:43:00,47.2,41.7,30.36,ENE,62,4.0,14.0,81,0.00,,OVC037,0.07,0.00,VWS V14.01,2013-12-08 01:43:00,
2013-12-07 20:45:00,46.8,40.6,30.38,ENE,64,11.0,14.0,79,0.00,,CLR,0.07,0.00,VWS V15.00,2013-12-08 01:45:00,
2013-12-07 20:48:00,47.1,41.9,30.36,ENE,76,5.0,14.0,82,0.00,,OVC037,0.07,0.00,VWS V14.01,2013-12-08 01:48:00,
2013-12-07 20:50:00,46.7,40.5,30.38,ENE,66,9.0,14.0,79,0.00,,CLR,0.07,0.00,VWS V15.00,2013-12-08 01:50:00,
2013-12-07 20:53:00,47.1,41.9,30.37,ENE,63,4.0,14.0,82,0.00,,OVC037,0.07,0.00,VWS V14.01,2013-12-08 01:53:00,
2013-12-07 20:55:00,46.7,40.5,30.39,ENE,70,8.0,14.0,79,0.00,,CLR,0.07,0.00,VWS V15.00,2013-12-08 01:55:00,
2013-12-07 20:58:00,47.1,41.9,30.36,NE,52,5.0,14.0,82,0.00,,OVC037,0.07,0.00,VWS V14.01,2013-12-08 01:58:00,
2013-12-07 21:00:00,46.6,40.5,30.39,NE,49,5.0,14.0,79,0.00,,CLR,0.07,0.00,VWS V15.00,2013-12-08 02:00:00,
2013-12-07 21:03:00,47.0,41.8,30.37,East,83,11.0,14.0,82,0.00,,OVC037,0.07,0.00,VWS V14.01,2013-12-08 02:03:00,
2013-12-07 21:05:00,46.5,40.0,30.39,NE,41,10.0,14.0,78,0.00,,CLR,0.07,0.00,VWS V15.00,2013-12-08 02:05:00,
2013-12-07 21:08:00,47.0,41.8,30.37,NE,44,7.0,14.0,82,0.00,,OVC037,0.07,0.00,VWS V14.01,2013-12-08 02:08:00,
2013-12-07 21:10:00,46.5,40.3,30.39,ENE,57,7.0,14.0,79,0.00,,CLR,0.07,0.00,VWS V15.00,2013-12-08 02:10:00,
2013-12-07 21:13:00,47.0,41.8,30.38,ENE,61,10.0,14.0,82,0.00,,OVC037,0.07,0.00,VWS V14.01,2013-12-08 02:13:00,
2013-12-07 21:15:00,46.4,39.9,30.39,East,80,15.0,15.0,78,0.00,,CLR,0.07,0.00,VWS V15.00,2013-12-08 02:15:00,
2013-12-07 21:19:00,46.9,41.7,30.37,ENE,71,13.0,14.0,82,0.00,,OVC037,0.07,0.00,VWS V14.01,2013-12-08 02:19:00,
2013-12-07 21:20:00,46.3,40.2,30.39,NE,53,9.0,14.0,79,0.00,,CLR,0.07,0.00,VWS V15.00,2013-12-08 02:20:00,
2013-12-07 21:24:00,46.9,41.4,30.37,NE,45,6.0,14.0,81,0.00,,OVC037,0.07,0.00,VWS V14.01,2013-12-08 02:24:00,
2013-12-07 21:25:00,46.3,40.2,30.39,ENE,64,8.0,14.0,79,0.00,,CLR,0.07,0.00,VWS V15.00,2013-12-08 02:25:00,
2013-12-07 21:29:00,46.9,41.1,30.38,East,85,7.0,14.0,80,0.00,,OVC037,0.07,0.00,VWS V14.01,2013-12-08 02:29:00,
2013-12-07 21:30:00,46.3,39.8,30.39,NE,49,10.0,14.0,78,0.00,,CLR,0.07,0.00,VWS V15.00,2013-12-08 02:30:00,
2013-12-07 21:34:00,46.9,40.7,30.38,NE,46,14.0,14.0,79,0.00,,OVC037,0.07,0.00,VWS V14.01,2013-12-08 02:34:00,
2013-12-07 21:35:00,46.3,39.8,30.39,ENE,59,9.0,14.0,78,0.00,,CLR,0.07,0.00,VWS V15.00,2013-12-08 02:35:00,
2013-12-07 21:39:00,46.8,40.6,30.38,ENE,78,11.0,14.0,79,0.00,,OVC035,0.07,0.00,VWS V14.01,2013-12-08 02:39:00,
2013-12-07 21:40:00,46.2,39.7,30.39,ENE,58,10.0,14.0,78,0.00,,CLR,0.07,0.00,VWS V15.00,2013-12-08 02:40:00,
2013-12-07 21:44:00,46.8,40.6,30.38,ENE,73,8.0,14.0,79,0.00,,OVC035,0.07,0.00,VWS V14.01,2013-12-08 02:44:00,
2013-12-07 21:45:00,46.1,39.6,30.39,NNE,23,10.0,14.0,78,0.00,,CLR,0.07,0.00,VWS V15.00,2013-12-08 02:45:00,
2013-12-07 21:49:00,46.7,40.5,30.38,NE,42,6.0,14.0,79,0.00,,OVC035,0.07,0.00,VWS V14.01,2013-12-08 02:49:00,
2013-12-07 21:50:00,46.1,40.0,30.39,East,94,9.0,14.0,79,0.00,,CLR,0.07,0.00,VWS V15.00,2013-12-08 02:50:00,
2013-12-07 21:54:00,46.7,40.5,30.39,ENE,57,7.0,14.0,79,0.00,,OVC035,0.07,0.00,VWS V14.01,2013-12-08 02:54:00,
2013-12-07 21:55:00,46.1,40.0,30.39,NE,38,4.0,14.0,79,0.00,,CLR,0.07,0.00,VWS V15.00,2013-12-08 02:55:00,
2013-12-07 21:59:00,46.6,40.5,30.39,NE,55,10.0,14.0,79,0.00,,OVC035,0.07,0.00,VWS V14.01,2013-12-08 02:59:00,
2013-12-07 22:00:00,46.0,39.9,30.40,NE,46,9.0,14.0,79,0.00,,CLR,0.07,0.00,VWS V15.00,2013-12-08 03:00:00,
2013-12-07 22:04:00,46.5,40.3,30.39,ENE,57,12.0,14.0,79,0.00,,OVC035,0.07,0.00,VWS V14.01,2013-12-08 03:04:00,
2013-12-07 22:05:00,46.0,39.9,30.41,NE,48,11.0,14.0,79,0.00,,CLR,0.07,0.00,VWS V15.00,2013-12-08 03:05:00,
2013-12-07 22:09:00,46.5,40.3,30.39,NE,50,11.0,14.0,79,0.00,,OVC035,0.07,0.00,VWS V14.01,2013-12-08 03:09:00,
2013-12-07 22:10:00,46.0,39.9,30.41,NE,51,7.0,14.0,79,0.00,,CLR,0.07,0.00,VWS V15.00,2013-12-08 03:10:00,
2013-12-07 22:14:00,46.4,39.9,30.39,ENE,71,14.0,14.0,78,0.00,,OVC035,0.07,0.00,VWS V14.01,2013-12-08 03:14:00,
2013-12-07 22:15:00,45.9,39.8,30.41,NE,43,5.0,14.0,79,0.00,,CLR,0.07,0.00,VWS V15.00,2013-12-08 03:15:00,
2013-12-07 22:19:00,46.3,40.2,30.39,NNE,33,5.0,14.0,79,0.00,,OVC035,0.07,0.00,VWS V14.01,2013-12-08 03:19:00,
2013-12-07 22:20:00,45.9,39.8,30.41,ENE,74,8.0,14.0,79,0.00,,CLR,0.07,0.00,VWS V15.00,2013-12-08 03:20:00,
2013-12-07 22:24:00,46.3,40.2,30.39,ENE,59,7.0,14.0,79,0.00,,OVC035,0.07,0.00,VWS V14.01,2013-12-08 03:24:00,
2013-12-07 22:25:00,45.9,39.4,30.40,ENE,57,6.0,14.0,78,0.00,,CLR,0.07,0.00,VWS V15.00,2013-12-08 03:25:00,
2013-12-07 22:29:00,46.3,39.8,30.39,NE,49,10.0,14.0,78,0.00,,OVC035,0.07,0.00,VWS V14.01,2013-12-08 03:29:00,
2013-12-07 22:30:00,45.8,39.7,30.41,NE,51,6.0,14.0,79,0.00,,CLR,0.07,0.00,VWS V15.00,2013-12-08 03:30:00,
2013-12-07 22:34:00,46.3,39.8,30.39,ENE,59,9.0,14.0,78,0.00,,OVC035,0.07,0.00,VWS V14.01,2013-12-08 03:34:00,
2013-12-07 22:35:00,45.8,39.7,30.40,NE,54,5.0,14.0,79,0.00,,CLR,0.07,0.00,VWS V15.00,2013-12-08 03:35:00,
2013-12-07 22:39:00,46.2,39.7,30.39,ENE,58,10.0,14.0,78,0.00,,OVC035,0.07,0.00,VWS V14.01,2013-12-08 03:39:00,
2013-12-07 22:40:00,45.8,40.0,30.40,NNE,23,5.0,14.0,80,0.00,,CLR,0.07,0.00,VWS V15.00,2013-12-08 03:40:00,
2013-12-07 22:45:00,46.1,39.6,30.39,NNE,23,10.0,14.0,78,0.00,,OVC035,0.07,0.00,VWS V14.01,2013-12-08 03:45:00,
2013-12-07 22:50:00,46.1,40.0,30.39,East,94,9.0,14.0,79,0.00,,OVC035,0.07,0.00,VWS V14.01,2013-12-08 03:50:00,
2013-12-07 22:55:00,46.1,40.0,30.39,NE,38,4.0,14.0,79,0.00,,OVC035,0.07,0.00,VWS V14.01,2013-12-08 03:55:00,
2013-12-07 23:00:00,46.0,39.9,30.40,NE,46,9.0,14.0,79,0.00,,OVC035,0.07,0.00,VWS V14.01,2013-12-08 04:00:00,
2013-12-07 23:05:00,46.0,39.9,30.41,NE,42,13.0,14.0,79,0.00,,OVC035,0.07,0.00,VWS V14.01,2013-12-08 04:05:00,
2013-12-07 23:10:00,46.0,39.9,30.41,NE,46,6.0,14.0,79,0.00,,OVC035,0.07,0.00,VWS V14.01,2013-12-08 04:10:00,
2013-12-07 23:15:00,46.0,39.9,30.41,NE,45,6.0,14.0,79,0.00,,OVC035,0.07,0.00,VWS V14.01,2013-12-08 04:15:00,
2013-12-07 23:20:00,45.9,39.8,30.41,ENE,61,10.0,14.0,79,0.00,,OVC035,0.07,0.00,VWS V14.01,2013-12-08 04:20:00,
2013-12-07 23:25:00,45.9,39.8,30.41,NE,49,5.0,14.0,79,0.00,,OVC035,0.07,0.00,VWS V14.01,2013-12-08 04:25:00,
2013-12-07 23:30:00,45.8,39.7,30.40,ENE,62,4.0,14.0,79,0.00,,OVC035,0.07,0.00,VWS V14.01,2013-12-08 04:30:00,
2013-12-07 23:35:00,45.8,39.7,30.40,ENE,68,9.0,14.0,79,0.00,,OVC035,0.07,0.00,VWS V14.01,2013-12-08 04:35:00,
2013-12-07 23:40:00,45.7,39.9,30.40,NE,53,3.0,14.0,80,0.00,,OVC035,0.07,0.00,VWS V14.01,2013-12-08 04:40:00,
2013-12-07 23:45:00,45.7,39.9,30.41,NE,52,5.0,14.0,80,0.00,,OVC035,0.07,0.00,VWS V14.01,2013-12-08 04:45:00,
2013-12-07 23:50:00,45.7,39.9,30.40,East,80,7.0,14.0,80,0.00,,OVC035,0.07,0.00,VWS V14.01,2013-12-08 04:50:00,
2013-12-07 23:55:00,45.6,39.8,30.40,ENE,65,3.0,14.0,80,0.00,,OVC035,0.07,0.00,VWS V14.01,2013-12-08 04:55:00,